Tracking 19245 objects as of 15-Aug-2018
HD Live streaming from Space Station
objects crossing your sky now

FR 1

Track FR 1 now!
10-day predictions
FR 1 is classified as:


NORAD ID: 1814
Int'l Code: 1965-101A
Perigee: 674.7 km
Apogee: 684.1 km
Inclination: 75.9 °
Period: 98.2 minutes
Semi major axis: 7050 km
RCS: 0.5793 m2 (medium)
Launch date: December 6, 1965
Source: France (FR)
Launch site: AIR FORCE WESTERN TEST RANGE (AFWTR)
aabbcc
Your satellite tracking list
Your tracking list is empty




NASA's NSSDC Master Catalog

Two Line Element Set (TLE):
1  1814U 65101A   18225.95689507 +.00000045 +00000-0 +11024-4 0  9995
2  1814 075.8659 224.5090 0006656 316.3431 043.7221 14.66512802635820
Source of the keplerian elements: AFSPC